N8PFF Weather Reports


Display with metric or nautical units.
time (UTC)temp
F
wind
direction
speed
MPH
gust
MPH
rain 1hr
in
rain 24hr
in
rain mn
in
humidity
%
barometer
mb
20260502151548 47 313 2.0 12.0 0.00 0.14 0.01 57 1018.1
20260502123107 39 293 2.0 7.0 0.00 0.15 0.01 83 1017.9
20260502121511 38 326 1.0 4.0 0.00 0.15 0.01 93 1018.0
20260502114548 39 283 0.0 1.0 0.00 0.15 0.01 97 1018.0
20260502113052 37 51 0.0 0.0 0.00 0.15 0.01 98 1018.1
20260502111602 36 51 0.0 0.0 0.00 0.15 0.01 98 1018.0
20260502110026 33 51 0.0 0.0 0.00 0.15 0.01 97 1017.9
20260502104541 33 51 0.0 0.0 0.00 0.15 0.01 97 1017.8
20260502103056 33 51 0.0 0.0 0.00 0.15 0.01 97 1017.8
20260502101634 34 51 0.0 0.0 0.00 0.15 0.01 97 1017.6
20260502071528 38 38 0.0 0.0 0.00 0.15 0.01 95 1017.2
20260502070044 38 38 0.0 0.0 0.01 0.15 0.01 95 1017.4
20260502064544 39 38 0.0 0.0 0.01 0.15 0.01 96 1017.6
20260502063003 39 38 0.0 0.0 0.01 0.15 0.01 95 1017.6
20260502061514 39 103 0.0 1.0 0.01 0.15 0.01 96 1017.7
20260502060031 38 140 0.0 0.0 0.00 0.14 0.00 95 1017.9
20260502054550 38 140 0.0 0.0 0.00 0.14 0.00 95 1017.9
20260502053003 39 140 0.0 0.0 0.00 0.14 0.00 94 1017.9
20260502051522 39 140 0.0 0.0 0.00 0.14 0.00 94 1017.8
20260502050016 40 140 0.0 0.0 0.00 0.14 0.00 93 1018.0
20260502044520 41 140 0.0 0.0 0.00 0.14 0.00 93 1018.1
20260502043042 41 140 0.0 0.0 0.00 0.14 0.00 93 1018.0
20260502041544 41 140 0.0 0.0 0.00 0.14 0.00 92 1018.3
20260502040048 42 140 0.0 0.0 0.00 0.14 0.00 92 1018.3
20260502034551 42 140 0.0 0.0 0.00 0.14 0.14 92 1018.2
20260502033009 42 140 0.0 0.0 0.00 0.14 0.14 92 1018.1
20260502031544 42 140 0.0 0.0 0.00 0.14 0.14 91 1018.1
20260502030100 42 140 0.0 0.0 0.00 0.14 0.14 91 1018.0
20260502024534 42 140 0.0 0.0 0.00 0.14 0.14 90 1017.8
20260502023031 42 140 0.0 0.0 0.00 0.14 0.14 90 1017.8
20260502021543 42 140 0.0 0.0 0.00 0.14 0.14 89 1017.8
20260502020052 42 140 0.0 0.0 0.00 0.14 0.14 89 1017.8
20260502014609 42 140 0.0 0.0 0.00 0.14 0.14 88 1017.7
20260502013010 42 140 0.0 0.0 0.00 0.14 0.14 88 1017.3
20260502011527 42 140 0.0 0.0 0.00 0.14 0.14 88 1016.9
20260502010038 42 140 0.0 0.0 0.00 0.14 0.14 86 1016.8
20260502004611 43 140 0.0 0.0 0.00 0.14 0.14 83 1016.9
20260502003009 44 140 0.0 1.0 0.00 0.14 0.14 81 1017.0
20260502001529 45 304 1.0 4.0 0.00 0.14 0.14 79 1016.7
20260502000046 46 28 0.0 9.0 0.00 0.14 0.14 78 1016.3
20260501234559 46 291 4.0 8.0 0.00 0.14 0.14 77 1015.9
20260501233019 47 311 2.0 8.0 0.00 0.14 0.14 74 1015.7
20260501231539 48 297 2.0 14.0 0.00 0.14 0.14 75 1015.5
20260501230049 47 297 2.0 11.0 0.00 0.14 0.14 78 1015.6
20260501224512 47 287 2.0 9.0 0.00 0.14 0.14 80 1015.5
20260501223033 47 280 3.0 7.0 0.00 0.14 0.14 80 1015.4
20260501221537 47 323 4.0 12.0 0.00 0.14 0.14 79 1015.4
20260501220013 47 276 4.0 10.0 0.00 0.14 0.14 79 1015.3
20260501214519 47 289 5.0 15.0 0.00 0.14 0.14 79 1015.0
20260501213045 48 316 5.0 15.0 0.00 0.14 0.14 78 1014.6
20260501211557 49 302 4.0 13.0 0.00 0.14 0.14 79 1014.0
20260501210007 50 334 6.0 17.0 0.00 0.14 0.14 78 1013.5
20260501204518 51 293 6.0 16.0 0.00 0.14 0.14 79 1013.4
20260501203040 52 295 6.0 17.0 0.00 0.14 0.14 79 1013.1
20260501201546 53 283 4.0 8.0 0.00 0.14 0.14 85 1012.9
20260501200051 51 321 1.0 6.0 0.00 0.14 0.14 88 1012.9
20260501194602 52 176 2.0 10.0 0.00 0.14 0.14 85 1012.9
20260501193000 52 293 2.0 8.0 0.00 0.14 0.14 89 1012.6
20260501191525 50 207 3.0 8.0 0.01 0.14 0.14 89 1013.1
20260501190033 50 265 2.0 9.0 0.01 0.14 0.14 89 1013.1
20260501184557 49 238 2.0 9.0 0.01 0.14 0.14 90 1013.0
20260501183059 49 150 2.0 5.0 0.01 0.14 0.14 91 1013.0
20260501181504 48 155 0.0 3.0 0.02 0.13 0.13 92 1013.0
20260501180026 48 141 0.0 5.0 0.03 0.13 0.13 92 1012.8
20260501174540 48 222 0.0 3.0 0.05 0.13 0.13 92 1012.8
20260501173115 48 153 0.0 3.0 0.07 0.13 0.13 92 1012.8
20260501171508 48 163 0.0 0.0 0.06 0.11 0.11 93 1013.1
20260501170018 48 188 0.0 1.0 0.06 0.10 0.10 92 1013.2
20260501164550 48 243 0.0 4.0 0.04 0.08 0.08 91 1013.3
20260501163046 48 263 0.0 2.0 0.02 0.06 0.06 90 1013.5
20260501161603 48 163 0.0 3.0 0.02 0.05 0.05 89 1013.4
20260501160020 48 300 0.0 2.0 0.03 0.04 0.04 92 1013.3